White Plains, CT

5:33 AM EDT on April 26, 2017 (GMT -0400)
Westchester County

Weather History for KHPN - March, 2012

Change the Weather History Date:

Thursday, March 15, 2012

  Actual Average Record
Temperature  
Mean Temperature 44 °F -  
Max Temperature 48 °F 43 °F 76 °F (1990)
Min Temperature 41 °F 27 °F 11 °F (1993)
Degree Days  
Heating Degree Days 22    
Moisture  
Dew Point 39 °F    
Average Humidity 86    
Maximum Humidity 96    
Minimum Humidity 76    
Precipitation  
Precipitation 0.00 in - - ()
Sea Level Pressure  
Sea Level Pressure 30.29 in    
Wind  
Wind Speed 7 mph (ESE)    
Max Wind Speed 10 mph    
Max Gust Speed -    
Visibility 8 miles    
Events      
Averages and records for this station are not official NWS values.
T = Trace of Precipitation, MM = Missing Value Source: NWS Daily Summary

Daily Weather History Graph

Daily Weather History Graph

Search for Another Location

Airport or City:

Trip Planner

Search our weather history database for the weather conditions in past years. The results will help you decide how hot, cold, wet, or windy it might be!

Date:

Astronomy

Mar. 15, 2012 Rise Set
Actual Time 7:05 AM EDT 7:02 PM EDT
Civil Twilight 6:38 AM EDT 7:29 PM EDT
Nautical Twilight 6:06 AM EDT 8:01 PM EDT
Astronomical Twilight 5:34 AM EDT 8:34 PM EDT
Moon 2:34 AM EDT (3/15) 12:13 PM EDT (3/15)
Length of Visible Light 12h 51m
Length of Day
11h 56m
Last Quarter, 43% of the Moon is Illuminated
Mar 15
Last Quarter
Mar 22
New
Mar 30
First Quarter
Apr 6
Full
Apr 13
Last Quarter

Hourly Weather History & Observations

Time (EDT) Temp. Windchill Dew Point Humidity Pressure Visibility Wind Dir Wind Speed Gust Speed Precip Events Conditions
12:56 AM 44.1 °F 39.5 °F 39.9 °F 85% 30.22 in 10.0 mi East 8.1 mph - N/A   Partly Cloudy
1:56 AM 43.0 °F 40.3 °F 39.9 °F 89% 30.24 in 10.0 mi East 4.6 mph - N/A   Scattered Clouds
2:56 AM 43.0 °F 39.5 °F 41.0 °F 93% 30.24 in 8.0 mi East 5.8 mph - N/A   Scattered Clouds
3:56 AM 43.0 °F 41.3 °F 41.0 °F 93% 30.24 in 7.0 mi East 3.5 mph - N/A   Scattered Clouds
4:03 AM 42.8 °F 39.3 °F 41.0 °F 93% 30.23 in 8.0 mi East 5.8 mph - N/A   Overcast
4:56 AM 42.1 °F 37.7 °F 39.9 °F 92% 30.26 in 8.0 mi East 6.9 mph - N/A   Mostly Cloudy
5:56 AM 41.0 °F 35.8 °F 39.0 °F 93% 30.27 in 4.0 mi East 8.1 mph - N/A   Mist
6:56 AM 41.0 °F 38.0 °F 39.9 °F 96% 30.29 in 7.0 mi ESE 4.6 mph - N/A   Overcast
7:56 AM 41.0 °F 35.8 °F 39.0 °F 93% 30.31 in 8.0 mi ENE 8.1 mph - N/A   Overcast
8:56 AM 41.0 °F 36.4 °F 39.0 °F 93% 30.31 in 5.0 mi ESE 6.9 mph - N/A   Overcast
9:56 AM 42.1 °F 36.6 °F 37.9 °F 85% 30.32 in 7.0 mi ESE 9.2 mph - N/A   Overcast
10:56 AM 42.1 °F 36.1 °F 37.9 °F 85% 30.34 in 10.0 mi SE 10.4 mph - N/A   Overcast
11:56 AM 43.0 °F 38.2 °F 37.9 °F 82% 30.33 in 10.0 mi East 8.1 mph - N/A   Overcast
12:56 PM 43.0 °F 39.5 °F 37.9 °F 82% 30.33 in 10.0 mi East 5.8 mph - N/A   Overcast
1:56 PM 45.0 °F 43.5 °F 39.0 °F 80% 30.32 in 10.0 mi East 3.5 mph - N/A   Overcast
2:29 PM 46.4 °F 44.3 °F 39.2 °F 76% 30.29 in 10.0 mi SSE 4.6 mph - N/A   Mostly Cloudy
2:56 PM 46.9 °F - 39.9 °F 77% 30.29 in 10.0 mi ESE 5.8 mph - N/A   Mostly Cloudy
3:56 PM 46.9 °F - 39.9 °F 77% 30.29 in 10.0 mi SSE 6.9 mph - N/A   Overcast
4:56 PM 46.0 °F 41.9 °F 39.0 °F 76% 30.27 in 10.0 mi ESE 8.1 mph - N/A   Overcast
5:56 PM 46.0 °F 42.5 °F 39.0 °F 76% 30.28 in 10.0 mi ESE 6.9 mph - N/A   Overcast
6:56 PM 44.1 °F 39.0 °F 37.9 °F 79% 30.28 in 10.0 mi ESE 9.2 mph - N/A   Mostly Cloudy
7:03 PM 44.6 °F 40.2 °F 39.2 °F 81% 30.27 in 10.0 mi ESE 8.1 mph - N/A   Overcast
7:56 PM 44.1 °F 41.5 °F 37.9 °F 79% 30.30 in 10.0 mi ESE 4.6 mph - N/A   Overcast
8:56 PM 43.0 °F 38.2 °F 37.9 °F 82% 30.32 in 10.0 mi East 8.1 mph - N/A   Overcast
9:56 PM 42.1 °F 37.7 °F 39.0 °F 89% 30.32 in 6.0 mi ESE 6.9 mph - N/A   Overcast
10:56 PM 41.0 °F 37.1 °F 39.0 °F 93% 30.31 in 5.0 mi East 5.8 mph - N/A   Mist
11:56 PM 41.0 °F 39.0 °F 39.0 °F 93% 30.31 in 6.0 mi East 3.5 mph - N/A   Mist